Vorticity
7 5 6 8 10 8 6 4 7 5 14 16 1 18 9 7 9 4 0 25 -1 -15 25 21 24 10 5 9 -2 34 50 10 20 6 -5 8 18 -6 12 0 -4 4 9 4 11 8 6
9 7 5 7 8 11 7 6 2 4 13 18 10 7 17 19 7 11 6 1 4 7 17 12 9 8 7 -1 -8 50 14 40 12 16 9 20 -3 6 -1 29 -3 1 13 16 11 8 7
14 10 7 4 9 8 13 7 6 3 10 16 7 4 13 15 10 5 1 3 24 30 13 3 37 -7 -1 19 37 19 8 9 9 11 14 -20 6 23 10 6 10 20 3 10 9 7 7
8 15 11 7 4 9 10 12 6 5 3 11 10 7 9 10 7 4 17 17 35 23 11 16 8 9 -0 -16 17 3 20 6 3 -5 -1 11 9 11 21 1 15 7 16 -1 12 7 9
5 8 14 11 7 5 8 13 10 8 -3 10 5 7 11 9 14 26 17 -9 6 12 13 15 33 56 -9 13 10 10 11 11 -4 4 15 10 1 7 -2 12 -3 -16 18 6 10 7 6
4 6 8 14 11 6 5 8 15 10 4 7 0 3 5 4 23 19 15 19 56 -10 2 -0 -4 0 9 13 17 18 8 11 10 9 14 1 14 19 6 1 15 -1 3 8 8 9 5
4 3 6 8 13 13 7 4 9 14 14 4 -1 -8 1 -10 -3 21 9 9 6 11 21 25 11 8 8 10 14 9 11 8 9 11 17 11 12 10 5 -14 4 9 9 6 9 16 6
6 4 3 6 8 11 16 8 4 10 12 18 13 -2 -5 -8 -9 -7 6 9 14 7 1 14 8 7 6 6 7 11 -4 10 1 19 3 -5 5 4 15 8 22 11 19 7 5 5 6
6 6 4 3 4 7 11 18 9 5 7 13 17 25 5 3 1 6 -5 -10 -11 1 10 -5 10 10 12 10 4 9 8 7 13 7 1 10 20 13 6 9 8 6 8 4 5 7 7
6 6 5 3 2 3 5 12 20 9 5 8 11 18 22 18 15 12 14 2 -7 -6 -11 20 -1 -2 5 10 1 6 3 4 6 8 15 9 11 6 6 2 2 -5 -1 12 6 8 0
5 6 7 6 3 2 4 5 14 18 10 6 7 8 23 22 17 11 10 16 17 12 -1 4 13 14 14 29 6 16 13 8 0 -1 25 20 6 7 10 3 -0 20 8 8 7 7 8
5 5 7 7 6 3 2 5 6 17 16 7 9 8 12 16 18 13 17 5 6 6 10 5 19 4 14 14 12 7 10 9 0 22 23 6 4 6 9 9 9 11 7 7 10 8 13
5 5 4 6 7 6 6 5 4 13 13 14 8 7 9 23 14 15 11 8 1 20 0 11 10 6 12 10 11 9 7 3 10 -2 2 3 8 12 7 1 7 7 6 6 4 10 6
5 6 6 6 6 7 7 5 6 7 19 8 12 10 10 13 15 16 12 7 16 20 28 16 7 10 15 -1 8 9 5 6 8 22 2 11 3 5 9 6 12 7 6 11 7 10 -2
5 6 6 6 7 7 7 6 6 5 15 11 19 12 11 10 14 16 18 17 16 2 12 2 -1 1 7 17 9 4 13 10 7 7 11 7 7 8 11 5 1 10 7 11 5 9 13
5 5 5 6 7 7 6 6 7 6 3 8 6 18 12 6 14 9 20 23 20 13 1 9 16 7 12 9 6 7 8 11 13 0 7 11 5 13 5 10 8 4 13 11 10 12 8
5 5 5 6 7 7 7 7 8 6 6 6 10 -0 13 17 7 14 14 12 8 9 5 9 12 7 10 6 8 9 15 11 10 -3 11 13 7 12 9 13 18 14 4 3 3 4 7
6 6 5 5 6 7 7 7 8 6 3 5 6 7 -4 23 19 9 11 13 8 6 9 10 8 9 12 9 4 8 11 12 10 12 11 0 11 10 5 5 6 2 -4 12 -1 19 5
8 7 6 5 6 6 7 8 8 6 5 6 9 7 12 9 11 12 9 9 6 8 11 10 12 11 9 6 5 6 6 8 8 9 8 11 13 6 11 21 23 9 12 5 -4 1 13
5 6 7 6 6 5 7 7 9 7 6 6 10 8 9 -2 10 10 12 11 10 10 10 7 9 8 7 7 9 8 7 6 5 5 5 7 9 -3 -8 1 -3 -7 -4 11 15 11 1
7 7 6 6 3 5 4 6 8 8 8 6 7 4 9 1 6 12 12 10 10 13 8 10 6 11 7 5 9 12 9 8 9 5 5 9 8 7 10 11 7 3 3 3 3 7 -16
7 7 5 5 7 8 6 6 5 8 9 7 8 7 7 5 8 12 7 10 2 7 10 12 9 9 7 10 1 -5 -0 4 8 5 9 11 9 8 4 17 23 18 15 13 16 4 5
7 7 8 7 6 5 6 7 7 6 7 8 8 8 8 5 6 10 7 10 13 14 13 1 4 7 10 11 11 9 10 9 0 0 -0 10 8 4 24 8 -1 43 52 51 32 26 12
7 7 7 7 7 7 6 6 7 7 8 8 8 8 8 7 4 7 9 10 7 10 9 15 16 14 10 8 7 8 8 10 10 10 12 -2 9 12 3 27 23 6 24 -6 13 13 24
6 7 8 8 8 7 7 7 7 7 8 9 9 9 8 7 5 4 5 7 6 8 11 11 13 9 12 14 19 28 18 31 31 31 27 11 3 -6 0 6 -21 29 28 14 31 27 9
11 9 8 7 7 9 8 7 8 8 8 8 9 9 8 6 13 4 6 3 6 8 8 1 4 3 8 9 14 13 4 0 17 13 11 26 37 -21 24 6 2 0 13 12 -3 9 18
16 15 12 10 9 8 7 8 8 8 8 9 7 8 8 8 14 10 6 2 10 6 2 2 15 11 10 11 13 16 12 1 11 10 10 13 21 12 -13 -11 14 13 14 15 18 6 14
-4 3 13 15 13 10 9 8 9 9 9 9 8 9 8 7 6 7 16 15 8 6 1 -1 11 26 22 22 12 8 15 -2 13 -2 3 7 17 18 27 12 14 21 18 13 2 -3 -13
10 19 5 1 7 13 13 11 10 10 10 9 11 10 8 8 -3 -8 4 7 10 -2 11 2 3 -1 -4 2 -4 10 -5 -10 -0 -1 4 13 7 -5 -9 8 -3 -10 -2 -14 -19 -5 -12
Height
3123 3118 3114 3108 3103 3097 3092 3087 3080 3074 3067 3061 3055 3049 3043 3037 3033 3029 3023 3018 3013 3012 3010 3010 3013 3018 3023 3027 3031 3032 3035 3038 3043 3054 3060 3070 3079 3089 3096 3100 3105 3106 3109 3114 3119 3122 3125
3124 3120 3116 3110 3105 3099 3094 3089 3083 3078 3071 3065 3058 3053 3047 3041 3037 3032 3028 3023 3020 3017 3016 3017 3020 3024 3029 3031 3034 3036 3039 3039 3052 3062 3066 3073 3083 3093 3099 3101 3105 3107 3110 3113 3118 3122 3125
3125 3121 3117 3113 3108 3101 3096 3092 3086 3081 3076 3069 3063 3058 3052 3047 3040 3037 3032 3028 3022 3022 3023 3025 3027 3029 3032 3038 3037 3040 3045 3051 3058 3064 3071 3080 3089 3092 3095 3100 3106 3110 3112 3114 3118 3122 3125
3128 3124 3120 3115 3110 3105 3099 3094 3089 3084 3080 3074 3068 3062 3058 3053 3048 3042 3039 3035 3030 3028 3030 3031 3032 3037 3040 3041 3044 3046 3052 3056 3062 3065 3071 3077 3086 3092 3100 3104 3106 3111 3114 3115 3119 3123 3126
3130 3126 3122 3117 3112 3107 3103 3097 3092 3088 3083 3078 3073 3068 3063 3058 3053 3048 3046 3042 3041 3039 3039 3041 3042 3044 3047 3053 3053 3054 3058 3063 3067 3072 3076 3083 3087 3093 3100 3104 3108 3112 3113 3115 3120 3122 3126
3133 3129 3124 3119 3114 3109 3105 3100 3096 3091 3087 3082 3077 3072 3068 3064 3060 3055 3051 3050 3046 3049 3049 3047 3050 3053 3058 3060 3061 3062 3064 3068 3073 3078 3082 3087 3093 3096 3101 3105 3109 3110 3113 3115 3119 3124 3125
3135 3131 3127 3122 3117 3112 3107 3102 3099 3095 3090 3086 3082 3077 3073 3069 3066 3063 3059 3056 3057 3057 3053 3054 3059 3057 3062 3064 3068 3071 3073 3076 3080 3082 3087 3091 3095 3098 3102 3106 3109 3111 3113 3116 3119 3122 3125
3137 3133 3129 3125 3120 3115 3110 3105 3101 3097 3093 3088 3084 3081 3077 3074 3072 3070 3067 3066 3062 3064 3062 3066 3067 3066 3067 3068 3072 3075 3077 3083 3084 3086 3090 3093 3092 3096 3103 3107 3109 3114 3114 3116 3120 3121 3124
3140 3136 3132 3128 3123 3118 3113 3108 3104 3099 3095 3091 3087 3083 3080 3077 3075 3075 3075 3073 3070 3070 3069 3071 3072 3074 3075 3077 3076 3080 3082 3085 3088 3089 3092 3094 3098 3101 3106 3108 3110 3112 3115 3116 3118 3120 3122
3141 3138 3134 3131 3126 3122 3116 3111 3106 3102 3098 3094 3089 3085 3082 3079 3078 3077 3076 3076 3076 3074 3076 3080 3079 3080 3081 3081 3083 3085 3086 3088 3090 3092 3094 3097 3100 3103 3106 3108 3110 3113 3115 3116 3117 3119 3121
3142 3139 3136 3133 3129 3125 3120 3115 3109 3105 3100 3097 3092 3088 3084 3080 3078 3077 3078 3077 3077 3078 3081 3088 3085 3085 3085 3086 3088 3089 3090 3090 3092 3093 3098 3102 3101 3103 3107 3109 3110 3113 3115 3116 3117 3118 3119
3144 3140 3137 3134 3131 3127 3123 3118 3113 3107 3103 3099 3095 3090 3086 3083 3080 3078 3078 3078 3079 3081 3088 3090 3089 3089 3089 3090 3091 3092 3093 3095 3095 3097 3099 3103 3105 3106 3108 3110 3111 3113 3115 3116 3116 3116 3118
3144 3141 3138 3135 3132 3128 3125 3121 3116 3110 3105 3101 3098 3093 3089 3086 3084 3081 3080 3080 3081 3082 3093 3094 3092 3092 3093 3093 3094 3095 3096 3097 3097 3101 3102 3105 3107 3108 3109 3110 3112 3113 3114 3116 3119 3118 3118
3144 3142 3139 3136 3133 3130 3127 3123 3118 3113 3108 3104 3100 3097 3093 3089 3086 3084 3083 3083 3082 3090 3091 3094 3093 3094 3094 3095 3097 3097 3098 3099 3100 3101 3104 3106 3110 3108 3108 3110 3110 3112 3113 3113 3118 3119 3117
3143 3141 3139 3136 3134 3131 3128 3125 3121 3116 3112 3108 3103 3100 3097 3093 3090 3088 3087 3084 3089 3092 3094 3095 3096 3098 3097 3097 3098 3099 3099 3100 3101 3102 3105 3105 3106 3107 3108 3109 3111 3112 3113 3116 3115 3117 3117
3141 3140 3139 3136 3134 3131 3129 3126 3122 3119 3115 3112 3108 3104 3098 3096 3094 3093 3091 3089 3092 3093 3094 3096 3097 3098 3100 3100 3101 3100 3101 3101 3102 3103 3104 3106 3107 3107 3108 3110 3112 3112 3115 3115 3115 3118 3117
3139 3138 3137 3136 3134 3131 3129 3127 3124 3121 3117 3114 3111 3107 3103 3100 3097 3096 3093 3094 3095 3097 3096 3096 3097 3099 3099 3099 3101 3101 3102 3103 3103 3104 3105 3106 3108 3110 3109 3110 3111 3112 3112 3113 3113 3113 3111
3137 3135 3135 3134 3134 3131 3129 3127 3125 3122 3119 3116 3112 3109 3107 3103 3102 3098 3097 3097 3098 3098 3098 3098 3098 3097 3097 3098 3099 3100 3101 3101 3102 3103 3104 3106 3107 3108 3109 3109 3109 3109 3110 3111 3112 3112 3110
3134 3133 3132 3132 3131 3130 3128 3126 3124 3122 3120 3117 3114 3111 3108 3106 3103 3101 3100 3100 3100 3100 3099 3099 3099 3099 3099 3099 3100 3100 3100 3101 3102 3103 3103 3104 3104 3106 3106 3108 3106 3106 3107 3109 3111 3110 3108
3130 3130 3130 3129 3128 3127 3126 3124 3123 3121 3119 3118 3115 3112 3110 3107 3104 3103 3101 3101 3101 3100 3100 3100 3100 3100 3100 3100 3100 3100 3100 3101 3101 3102 3102 3103 3102 3103 3103 3103 3103 3102 3103 3104 3105 3103 3101
3126 3125 3125 3126 3124 3124 3123 3122 3121 3120 3118 3117 3115 3113 3110 3108 3105 3104 3102 3101 3100 3100 3100 3100 3099 3099 3100 3100 3099 3100 3099 3100 3100 3100 3100 3101 3099 3099 3099 3099 3099 3097 3097 3097 3095 3096 3096
3120 3120 3120 3120 3121 3121 3120 3119 3119 3117 3116 3115 3114 3113 3110 3108 3106 3104 3102 3101 3100 3099 3099 3099 3098 3098 3098 3099 3099 3099 3098 3098 3098 3099 3099 3099 3097 3096 3093 3094 3093 3090 3089 3087 3086 3086 3085
3114 3114 3115 3115 3115 3116 3117 3116 3115 3114 3113 3112 3112 3111 3110 3108 3106 3104 3103 3101 3099 3098 3098 3097 3097 3096 3096 3097 3097 3096 3096 3096 3096 3096 3096 3096 3096 3094 3091 3090 3089 3082 3076 3076 3077 3076 3080
3106 3107 3109 3110 3110 3110 3111 3111 3112 3111 3110 3109 3108 3108 3108 3106 3105 3104 3102 3100 3099 3098 3096 3096 3095 3094 3095 3094 3093 3093 3092 3091 3091 3091 3092 3091 3092 3094 3089 3089 3087 3075 3074 3074 3073 3074 3075
3099 3101 3102 3103 3105 3105 3105 3106 3106 3106 3106 3106 3105 3105 3104 3103 3102 3102 3100 3099 3097 3095 3094 3093 3092 3092 3091 3091 3090 3088 3088 3087 3085 3084 3085 3086 3089 3090 3089 3086 3077 3073 3071 3072 3070 3072 3073
3091 3093 3096 3097 3098 3099 3099 3100 3101 3101 3101 3101 3101 3100 3100 3099 3098 3098 3097 3096 3095 3093 3093 3092 3090 3089 3088 3087 3087 3086 3086 3084 3084 3082 3081 3082 3084 3089 3087 3085 3077 3071 3070 3070 3069 3069 3069
3082 3084 3086 3089 3091 3093 3093 3093 3094 3095 3096 3096 3095 3095 3095 3094 3094 3093 3092 3091 3091 3090 3090 3088 3088 3086 3085 3085 3085 3085 3084 3083 3082 3079 3078 3078 3079 3079 3082 3082 3073 3069 3069 3068 3070 3071 3066
3076 3077 3078 3080 3082 3083 3085 3086 3088 3088 3088 3089 3090 3090 3090 3089 3088 3087 3086 3086 3085 3086 3086 3086 3086 3083 3082 3081 3082 3082 3079 3078 3077 3076 3076 3076 3075 3075 3078 3078 3072 3067 3066 3068 3067 3065 3064
3068 3068 3070 3072 3074 3075 3077 3078 3078 3081 3082 3081 3083 3083 3083 3083 3084 3082 3081 3080 3080 3079 3080 3080 3083 3081 3080 3078 3078 3078 3077 3075 3073 3071 3071 3071 3071 3071 3072 3068 3065 3065 3065 3062 3059 3059 3058